Time,TemperatureF,DewpointF,PressureIn,WindDirection,WindDirectionDegrees,WindSpeedMPH,WindSpeedGustMPH,Humidity,HourlyPrecipIn,Conditions,Clouds,dailyrainin,SoftwareType,DateUTC
2013-05-04 00:00:00,68.4,63.0,29.76,WNW,299,0.0,7.0,83,0.00,,---,1.07,VWS V14.01,2013-05-04 04:00:00,
2013-05-04 00:01:00,68.4,63.0,29.76,NE,55,1.0,8.0,83,0.00,,---,0.00,VWS V14.01,2013-05-04 04:01:00,
2013-05-04 00:06:00,68.4,63.7,29.76,NE,42,0.0,8.0,85,0.00,,---,0.00,VWS V14.01,2013-05-04 04:06:00,
2013-05-04 00:11:00,68.4,63.0,29.76,North,0,0.0,8.0,83,0.00,,---,0.00,VWS V14.01,2013-05-04 04:11:00,
2013-05-04 00:16:00,68.6,63.2,29.75,NW,311,0.0,8.0,83,0.00,,---,0.00,VWS V14.01,2013-05-04 04:16:00,
2013-05-04 00:21:00,68.8,63.4,29.75,South,189,0.0,8.0,83,0.00,,---,0.00,VWS V14.01,2013-05-04 04:21:00,
2013-05-04 00:26:00,68.8,63.1,29.75,NW,318,3.0,8.0,82,0.00,,---,0.00,VWS V14.01,2013-05-04 04:26:00,
2013-05-04 00:30:00,68.8,63.1,29.75,SSW,193,0.0,8.0,82,0.00,,---,0.00,VWS V14.01,2013-05-04 04:30:00,
2013-05-04 00:31:00,68.8,63.1,29.75,WSW,244,0.0,2.0,82,0.00,,---,0.00,VWS V14.01,2013-05-04 04:31:00,
2013-05-04 00:36:00,68.6,62.9,29.75,East,95,0.0,2.0,82,0.00,,---,0.00,VWS V14.01,2013-05-04 04:36:00,
2013-05-04 00:41:00,68.4,62.3,29.75,NE,37,0.0,3.0,81,0.00,,---,0.00,VWS V14.01,2013-05-04 04:41:00,
2013-05-04 00:46:00,68.4,62.0,29.75,NW,320,8.0,8.0,80,0.00,,---,0.00,VWS V14.01,2013-05-04 04:46:00,
2013-05-04 00:51:00,68.4,61.6,29.75,WSW,240,0.0,8.0,79,0.00,,---,0.00,VWS V14.01,2013-05-04 04:51:00,
2013-05-04 00:56:00,68.4,62.0,29.75,NW,320,0.0,8.0,80,0.00,,---,0.00,VWS V14.01,2013-05-04 04:56:00,
2013-05-04 01:00:00,68.4,61.3,29.75,NNW,342,0.0,8.0,78,0.00,,---,0.00,VWS V14.01,2013-05-04 05:00:00,
2013-05-04 01:01:00,68.4,61.3,29.75,WSW,256,0.0,5.0,78,0.00,,---,0.00,VWS V14.01,2013-05-04 05:01:00,
2013-05-04 01:06:00,68.4,60.9,29.75,NNE,24,0.0,5.0,77,0.00,,---,0.00,VWS V14.01,2013-05-04 05:06:00,
2013-05-04 01:11:00,68.6,61.5,29.75,WNW,294,0.0,5.0,78,0.00,,---,0.00,VWS V14.01,2013-05-04 05:11:00,
2013-05-04 01:16:00,68.8,61.7,29.75,ESE,119,0.0,5.0,78,0.00,,---,0.00,VWS V14.01,2013-05-04 05:16:00,
2013-05-04 01:21:00,68.9,62.5,29.75,SE,130,0.0,5.0,80,0.00,,---,0.00,VWS V14.01,2013-05-04 05:21:00,
2013-05-04 01:26:00,68.8,63.4,29.75,NW,315,0.0,5.0,83,0.00,,---,0.00,VWS V14.01,2013-05-04 05:26:00,
2013-05-04 01:30:00,68.6,63.9,29.75,WNW,289,0.0,5.0,85,0.00,,---,0.00,VWS V14.01,2013-05-04 05:30:00,
2013-05-04 01:31:00,68.4,63.7,29.75,North,10,0.0,0.0,85,0.00,,---,0.00,VWS V14.01,2013-05-04 05:31:00,
2013-05-04 01:36:00,68.1,63.4,29.75,NNW,333,0.0,1.0,85,0.00,,---,0.00,VWS V14.01,2013-05-04 05:36:00,
2013-05-04 01:41:00,68.1,63.4,29.75,WNW,292,0.0,2.0,85,0.00,,---,0.00,VWS V14.01,2013-05-04 05:41:00,
2013-05-04 01:46:00,68.1,63.4,29.74,North,0,0.0,2.0,85,0.00,,---,0.00,VWS V14.01,2013-05-04 05:46:00,
2013-05-04 01:51:00,68.1,63.4,29.74,NNW,337,0.0,3.0,85,0.00,,---,0.00,VWS V14.01,2013-05-04 05:51:00,
2013-05-04 01:56:00,68.1,62.8,29.74,NNW,347,0.0,3.0,83,0.00,,---,0.00,VWS V14.01,2013-05-04 05:56:00,
2013-05-04 02:00:00,68.4,62.7,29.74,NW,308,0.0,5.0,82,0.00,,---,0.00,VWS V14.01,2013-05-04 06:00:00,
2013-05-04 02:01:00,68.4,62.7,29.74,NW,308,0.0,0.0,82,0.00,,---,0.00,VWS V14.01,2013-05-04 06:01:00,
2013-05-04 02:06:00,68.8,63.4,29.74,SW,219,0.0,0.0,83,0.00,,---,0.00,VWS V14.01,2013-05-04 06:06:00,
2013-05-04 02:11:00,68.8,63.1,29.74,NNW,346,0.0,8.0,82,0.00,,---,0.00,VWS V14.01,2013-05-04 06:11:00,
2013-05-04 02:16:00,68.6,62.5,29.73,SE,127,0.0,8.0,81,0.00,,---,0.00,VWS V14.01,2013-05-04 06:16:00,
2013-05-04 02:21:00,68.6,62.5,29.73,NNW,332,0.0,8.0,81,0.00,,---,0.00,VWS V14.01,2013-05-04 06:21:00,
2013-05-04 02:26:00,68.4,62.0,29.73,NW,315,0.0,8.0,80,0.00,,---,0.00,VWS V14.01,2013-05-04 06:26:00,
2013-05-04 02:30:00,68.3,61.5,29.72,NW,313,0.0,8.0,79,0.00,,---,0.00,VWS V14.01,2013-05-04 06:30:00,
2013-05-04 02:31:00,68.3,61.5,29.72,NW,319,0.0,4.0,79,0.00,,---,0.00,VWS V14.01,2013-05-04 06:31:00,
2013-05-04 02:36:00,68.1,61.7,29.72,West,278,0.0,6.0,80,0.00,,---,0.00,VWS V14.01,2013-05-04 06:36:00,
2013-05-04 02:41:00,68.1,61.0,29.72,NNW,343,0.0,7.0,78,0.01,,---,0.01,VWS V14.01,2013-05-04 06:41:00,
2013-05-04 02:46:00,68.1,60.3,29.71,NW,305,0.0,7.0,76,0.01,,---,0.01,VWS V14.01,2013-05-04 06:46:00,
2013-05-04 02:51:00,68.4,61.3,29.71,NNW,328,0.0,7.0,78,0.01,,---,0.01,VWS V14.01,2013-05-04 06:51:00,
2013-05-04 02:56:00,68.4,62.0,29.71,North,10,0.0,7.0,80,0.01,,---,0.01,VWS V14.01,2013-05-04 06:56:00,
2013-05-04 03:00:00,68.4,62.0,29.71,WNW,282,1.0,7.0,80,0.01,,---,0.01,VWS V14.01,2013-05-04 07:00:00,
2013-05-04 03:01:00,68.4,62.0,29.71,North,349,0.0,1.0,80,0.01,,---,0.01,VWS V14.01,2013-05-04 07:01:00,
2013-05-04 03:06:00,68.4,62.3,29.71,NNW,333,0.0,5.0,81,0.01,,---,0.01,VWS V14.01,2013-05-04 07:06:00,
2013-05-04 03:11:00,68.6,62.9,29.71,NW,308,0.0,5.0,82,0.01,,---,0.01,VWS V14.01,2013-05-04 07:11:00,
2013-05-04 03:16:00,68.6,62.9,29.71,NW,313,0.0,5.0,82,0.01,,---,0.01,VWS V14.01,2013-05-04 07:16:00,
2013-05-04 03:21:00,68.6,63.2,29.71,NNW,332,0.0,5.0,83,0.01,,---,0.01,VWS V14.01,2013-05-04 07:21:00,
2013-05-04 03:26:00,68.6,63.6,29.71,WNW,295,0.0,6.0,84,0.01,,---,0.01,VWS V14.01,2013-05-04 07:26:00,
2013-05-04 03:30:00,68.6,63.2,29.70,ENE,64,0.0,6.0,83,0.01,,---,0.01,VWS V14.01,2013-05-04 07:30:00,
2013-05-04 03:31:00,68.6,63.2,29.70,NNE,27,0.0,0.0,83,0.01,,---,0.01,VWS V14.01,2013-05-04 07:31:00,
2013-05-04 03:36:00,68.4,62.3,29.70,NW,305,0.0,5.0,81,0.01,,---,0.01,VWS V14.01,2013-05-04 07:36:00,
2013-05-04 03:41:00,68.6,62.2,29.70,NW,319,0.0,10.0,80,0.01,,---,0.01,VWS V14.01,2013-05-04 07:41:00,
2013-05-04 03:46:00,68.6,62.9,29.70,SSE,148,0.0,10.0,82,0.01,,---,0.01,VWS V14.01,2013-05-04 07:46:00,
2013-05-04 03:51:00,68.3,63.6,29.70,North,4,0.0,10.0,85,0.01,,---,0.01,VWS V14.01,2013-05-04 07:51:00,
2013-05-04 03:56:00,67.8,63.8,29.70,ENE,72,0.0,10.0,87,0.01,,---,0.01,VWS V14.01,2013-05-04 07:56:00,
2013-05-04 04:00:00,67.4,64.1,29.70,North,10,0.0,10.0,89,0.01,,---,0.01,VWS V14.01,2013-05-04 08:00:00,
2013-05-04 04:01:00,67.4,64.1,29.70,North,10,0.0,0.0,89,0.00,,---,0.01,VWS V14.01,2013-05-04 08:01:00,
2013-05-04 04:06:00,67.1,64.4,29.70,SE,137,0.0,6.0,91,0.00,,---,0.01,VWS V14.01,2013-05-04 08:06:00,
2013-05-04 04:11:00,66.9,64.5,29.70,North,0,0.0,10.0,92,0.00,,---,0.01,VWS V14.01,2013-05-04 08:11:00,
2013-05-04 04:16:00,66.3,64.2,29.71,NNW,329,0.0,10.0,93,0.00,,---,0.01,VWS V14.01,2013-05-04 08:16:00,
2013-05-04 04:21:00,65.8,64.0,29.71,North,349,0.0,10.0,94,0.00,,---,0.01,VWS V14.01,2013-05-04 08:21:00,
2013-05-04 04:26:00,65.8,64.3,29.71,North,0,3.0,10.0,95,0.00,,---,0.01,VWS V14.01,2013-05-04 08:26:00,
2013-05-04 04:30:00,65.8,64.6,29.71,North,354,1.0,10.0,96,0.01,,---,0.02,VWS V14.01,2013-05-04 08:30:00,
2013-05-04 04:31:00,65.8,64.6,29.71,North,350,3.0,3.0,96,0.01,,---,0.02,VWS V14.01,2013-05-04 08:31:00,
2013-05-04 04:36:00,65.8,64.6,29.71,WNW,292,0.0,3.0,96,0.01,,---,0.02,VWS V14.01,2013-05-04 08:36:00,
2013-05-04 04:41:00,65.8,64.9,29.71,NW,313,0.0,5.0,97,0.01,,---,0.02,VWS V14.01,2013-05-04 08:41:00,
2013-05-04 04:46:00,65.8,64.9,29.70,NNW,328,0.0,7.0,97,0.01,,---,0.02,VWS V14.01,2013-05-04 08:46:00,
2013-05-04 04:51:00,65.5,64.6,29.70,WNW,294,5.0,8.0,97,0.01,,---,0.02,VWS V14.01,2013-05-04 08:51:00,
2013-05-04 04:56:00,65.3,64.7,29.70,North,1,0.0,8.0,98,0.02,,---,0.03,VWS V14.01,2013-05-04 08:56:00,
2013-05-04 05:00:00,65.3,64.7,29.70,WNW,299,1.0,10.0,98,0.02,,---,0.03,VWS V14.01,2013-05-04 09:00:00,
2013-05-04 05:01:00,65.5,64.9,29.70,NNW,343,3.0,3.0,98,0.02,,---,0.03,VWS V14.01,2013-05-04 09:01:00,
2013-05-04 05:06:00,65.5,64.9,29.70,NW,313,2.0,8.0,98,0.02,,---,0.03,VWS V14.01,2013-05-04 09:06:00,
2013-05-04 05:11:00,65.6,65.3,29.70,NNW,346,0.0,8.0,99,0.03,,---,0.04,VWS V14.01,2013-05-04 09:11:00,
2013-05-04 05:16:00,65.5,65.2,29.70,NW,313,0.0,8.0,99,0.03,,---,0.04,VWS V14.01,2013-05-04 09:16:00,
2013-05-04 05:21:00,65.5,65.2,29.70,WNW,296,0.0,8.0,99,0.04,,---,0.05,VWS V14.01,2013-05-04 09:21:00,
2013-05-04 05:26:00,65.5,65.2,29.70,NNW,328,3.0,8.0,99,0.04,,---,0.05,VWS V14.01,2013-05-04 09:26:00,
2013-05-04 05:30:00,65.5,65.2,29.69,NW,313,0.0,8.0,99,0.04,,---,0.05,VWS V14.01,2013-05-04 09:30:00,
2013-05-04 05:31:00,65.5,65.2,29.69,NNW,343,6.0,6.0,99,0.03,,---,0.05,VWS V14.01,2013-05-04 09:31:00,
2013-05-04 05:36:00,65.6,65.3,29.69,NNW,340,2.0,6.0,99,0.03,,---,0.05,VWS V14.01,2013-05-04 09:36:00,
2013-05-04 05:41:00,65.8,65.8,29.69,NW,322,3.0,7.0,100,0.03,,---,0.05,VWS V14.01,2013-05-04 09:41:00,
2013-05-04 05:46:00,66.0,66.0,29.69,NW,318,0.0,8.0,100,0.03,,---,0.05,VWS V14.01,2013-05-04 09:46:00,
2013-05-04 05:51:00,66.0,66.0,29.69,North,350,0.0,11.0,100,0.03,,---,0.05,VWS V14.01,2013-05-04 09:51:00,
2013-05-04 05:56:00,66.1,66.1,29.69,NNW,337,0.0,11.0,100,0.03,,---,0.05,VWS V14.01,2013-05-04 09:56:00,
2013-05-04 06:00:00,66.1,66.1,29.69,NNW,346,0.0,11.0,100,0.03,,---,0.05,VWS V14.01,2013-05-04 10:00:00,
2013-05-04 06:01:00,66.1,66.1,29.69,North,0,7.0,7.0,100,0.02,,---,0.05,VWS V14.01,2013-05-04 10:01:00,
2013-05-04 06:06:00,66.1,66.1,29.69,North,0,1.0,7.0,100,0.02,,---,0.05,VWS V14.01,2013-05-04 10:06:00,
2013-05-04 06:11:00,66.1,66.1,29.69,West,275,0.0,7.0,100,0.02,,---,0.05,VWS V14.01,2013-05-04 10:11:00,
2013-05-04 06:16:00,66.3,66.3,29.70,NW,313,0.0,7.0,100,0.02,,---,0.05,VWS V14.01,2013-05-04 10:16:00,
2013-05-04 06:21:00,66.3,66.3,29.70,NW,316,2.0,7.0,100,0.02,,---,0.05,VWS V14.01,2013-05-04 10:21:00,
2013-05-04 06:26:00,66.1,66.1,29.70,NNW,336,0.0,7.0,100,0.02,,---,0.05,VWS V14.01,2013-05-04 10:26:00,
2013-05-04 06:30:00,66.1,65.8,29.70,WNW,298,0.0,7.0,99,0.02,,---,0.05,VWS V14.01,2013-05-04 10:30:00,
2013-05-04 06:31:00,66.1,65.8,29.70,NW,319,0.0,2.0,99,0.00,,---,0.05,VWS V14.01,2013-05-04 10:31:00,
2013-05-04 06:36:00,66.0,65.7,29.70,NNW,342,0.0,2.0,99,0.00,,---,0.05,VWS V14.01,2013-05-04 10:36:00,
2013-05-04 06:41:00,66.1,65.8,29.70,NE,45,0.0,3.0,99,0.00,,---,0.05,VWS V14.01,2013-05-04 10:41:00,
2013-05-04 06:46:00,66.1,65.8,29.70,NW,313,0.0,6.0,99,0.00,,---,0.05,VWS V14.01,2013-05-04 10:46:00,
2013-05-04 06:51:00,66.3,66.0,29.70,WNW,296,0.0,6.0,99,0.00,,---,0.05,VWS V14.01,2013-05-04 10:51:00,
2013-05-04 06:56:00,66.4,65.8,29.70,North,356,0.0,6.0,98,0.00,,---,0.05,VWS V14.01,2013-05-04 10:56:00,
2013-05-04 07:00:00,66.4,65.8,29.70,North,0,0.0,6.0,98,0.00,,---,0.05,VWS V14.01,2013-05-04 11:00:00,
2013-05-04 07:01:00,66.4,65.8,29.70,North,0,0.0,0.0,98,0.00,,---,0.05,VWS V14.01,2013-05-04 11:01:00,
2013-05-04 07:06:00,66.6,65.7,29.70,NW,305,0.0,0.0,97,0.00,,---,0.05,VWS V14.01,2013-05-04 11:06:00,
2013-05-04 07:11:00,66.6,65.7,29.70,NNW,340,0.0,2.0,97,0.00,,---,0.05,VWS V14.01,2013-05-04 11:11:00,
2013-05-04 07:16:00,66.6,65.7,29.70,NW,319,0.0,6.0,97,0.00,,---,0.05,VWS V14.01,2013-05-04 11:16:00,
2013-05-04 07:21:00,66.8,65.9,29.70,NNW,329,0.0,6.0,97,0.00,,---,0.05,VWS V14.01,2013-05-04 11:21:00,
2013-05-04 07:26:00,66.9,66.0,29.70,North,353,0.0,6.0,97,0.00,,---,0.05,VWS V14.01,2013-05-04 11:26:00,
2013-05-04 07:30:00,66.9,66.0,29.70,West,268,0.0,6.0,97,0.00,,---,0.05,VWS V14.01,2013-05-04 11:30:00,
2013-05-04 07:31:00,67.1,66.2,29.70,West,277,0.0,0.0,97,0.00,,---,0.05,VWS V14.01,2013-05-04 11:31:00,
2013-05-04 07:36:00,67.3,66.4,29.70,NNW,336,0.0,3.0,97,0.00,,---,0.05,VWS V14.01,2013-05-04 11:36:00,
2013-05-04 07:41:00,67.6,66.7,29.70,North,0,0.0,3.0,97,0.00,,---,0.05,VWS V14.01,2013-05-04 11:41:00,
2013-05-04 07:46:00,67.6,66.7,29.71,NW,308,0.0,3.0,97,0.00,,---,0.05,VWS V14.01,2013-05-04 11:46:00,
2013-05-04 07:51:00,67.8,66.9,29.71,NNW,346,0.0,6.0,97,0.00,,---,0.05,VWS V14.01,2013-05-04 11:51:00,
2013-05-04 07:56:00,67.8,66.6,29.71,NW,309,0.0,6.0,96,0.00,,---,0.05,VWS V14.01,2013-05-04 11:56:00,
2013-05-04 08:00:00,67.9,66.7,29.71,WNW,292,0.0,7.0,96,0.00,,---,0.05,VWS V14.01,2013-05-04 12:00:00,
2013-05-04 08:01:00,67.9,66.7,29.71,NNW,343,0.0,0.0,96,0.00,,---,0.05,VWS V14.01,2013-05-04 12:01:00,
2013-05-04 08:06:00,67.9,66.4,29.71,WNW,292,0.0,6.0,95,0.00,,---,0.05,VWS V14.01,2013-05-04 12:06:00,
2013-05-04 08:11:00,68.1,66.6,29.71,NNW,337,3.0,6.0,95,0.00,,---,0.05,VWS V14.01,2013-05-04 12:11:00,
2013-05-04 08:16:00,68.1,66.3,29.71,WSW,253,0.0,7.0,94,0.00,,---,0.05,VWS V14.01,2013-05-04 12:16:00,
2013-05-04 08:21:00,68.3,66.5,29.71,WNW,299,0.0,7.0,94,0.00,,---,0.05,VWS V14.01,2013-05-04 12:21:00,
2013-05-04 08:26:00,68.3,66.5,29.71,ENE,62,0.0,7.0,94,0.00,,---,0.05,VWS V14.01,2013-05-04 12:26:00,
2013-05-04 08:30:00,68.3,66.5,29.71,NW,315,0.0,7.0,94,0.00,,---,0.05,VWS V14.01,2013-05-04 12:30:00,
2013-05-04 08:31:00,68.3,66.5,29.71,NW,309,0.0,0.0,94,0.00,,---,0.05,VWS V14.01,2013-05-04 12:31:00,
2013-05-04 08:36:00,68.3,66.5,29.71,SSE,160,2.0,7.0,94,0.00,,---,0.05,VWS V14.01,2013-05-04 12:36:00,
2013-05-04 08:41:00,68.3,66.2,29.71,NNW,342,0.0,8.0,93,0.01,,---,0.06,VWS V14.01,2013-05-04 12:41:00,
2013-05-04 08:46:00,68.3,66.2,29.71,West,263,0.0,8.0,93,0.01,,---,0.06,VWS V14.01,2013-05-04 12:46:00,
2013-05-04 08:51:00,68.3,66.5,29.71,NW,308,2.0,8.0,94,0.02,,---,0.07,VWS V14.01,2013-05-04 12:51:00,
2013-05-04 08:56:00,68.1,66.6,29.71,NW,325,0.0,8.0,95,0.02,,---,0.07,VWS V14.01,2013-05-04 12:56:00,
2013-05-04 09:00:00,68.1,66.9,29.71,North,352,0.0,8.0,96,0.02,,---,0.07,VWS V14.01,2013-05-04 13:00:00,
2013-05-04 09:01:00,68.1,66.9,29.71,North,349,0.0,0.0,96,0.02,,---,0.07,VWS V14.01,2013-05-04 13:01:00,
2013-05-04 09:03:00,68.1,66.9,29.71,WNW,285,0.0,2.0,96,0.02,,---,0.07,VWS V14.01,2013-05-04 13:03:00,
2013-05-04 09:08:00,68.1,67.2,29.71,North,357,2.0,7.0,97,0.02,,---,0.07,VWS V14.01,2013-05-04 13:08:00,
2013-05-04 09:13:00,67.9,67.0,29.71,NE,37,0.0,11.0,97,0.02,,---,0.07,VWS V14.01,2013-05-04 13:13:00,
2013-05-04 09:18:00,67.8,66.9,29.71,NW,319,0.0,11.0,97,0.02,,---,0.07,VWS V14.01,2013-05-04 13:18:00,
2013-05-04 09:23:00,67.9,67.0,29.71,North,359,2.0,11.0,97,0.02,,---,0.07,VWS V14.01,2013-05-04 13:23:00,
2013-05-04 09:28:00,67.9,67.0,29.71,NW,325,8.0,11.0,97,0.02,,---,0.07,VWS V14.01,2013-05-04 13:28:00,
2013-05-04 09:30:00,67.9,67.0,29.71,WSW,254,2.0,11.0,97,0.02,,---,0.07,VWS V14.01,2013-05-04 13:30:00,
2013-05-04 09:33:00,67.9,67.0,29.71,WNW,289,0.0,8.0,97,0.02,,---,0.07,VWS V14.01,2013-05-04 13:33:00,
2013-05-04 09:38:00,67.9,67.3,29.71,NNW,336,0.0,8.0,98,0.02,,---,0.07,VWS V14.01,2013-05-04 13:38:00,
2013-05-04 09:43:00,67.9,67.0,29.71,WNW,301,0.0,8.0,97,0.02,,---,0.07,VWS V14.01,2013-05-04 13:43:00,
2013-05-04 09:48:00,67.9,67.0,29.71,NW,319,2.0,8.0,97,0.02,,---,0.07,VWS V14.01,2013-05-04 13:48:00,
2013-05-04 09:54:00,67.8,66.9,29.71,NW,308,0.0,8.0,97,0.02,,---,0.07,VWS V14.01,2013-05-04 13:54:00,
2013-05-04 09:59:00,67.8,66.9,29.71,North,0,1.0,11.0,97,0.02,,---,0.07,VWS V14.01,2013-05-04 13:59:00,
2013-05-04 10:00:00,67.8,66.9,29.72,NNW,335,0.0,11.0,97,0.02,,---,0.07,VWS V14.01,2013-05-04 14:00:00,
2013-05-04 10:04:00,67.9,67.0,29.72,NNW,347,0.0,7.0,97,0.00,,---,0.07,VWS V14.01,2013-05-04 14:04:00,
2013-05-04 10:09:00,67.9,67.0,29.72,WNW,295,0.0,7.0,97,0.00,,---,0.07,VWS V14.01,2013-05-04 14:09:00,
2013-05-04 10:14:00,67.9,67.0,29.72,North,359,0.0,7.0,97,0.00,,---,0.07,VWS V14.01,2013-05-04 14:14:00,
2013-05-04 10:19:00,67.9,67.0,29.72,WNW,288,0.0,8.0,97,0.00,,---,0.07,VWS V14.01,2013-05-04 14:19:00,
2013-05-04 10:24:00,67.9,67.0,29.72,NW,313,0.0,8.0,97,0.00,,---,0.07,VWS V14.01,2013-05-04 14:24:00,
2013-05-04 10:29:00,67.9,67.0,29.72,North,0,2.0,8.0,97,0.00,,---,0.07,VWS V14.01,2013-05-04 14:29:00,
2013-05-04 10:30:00,67.9,67.0,29.72,NNW,339,0.0,8.0,97,0.00,,---,0.07,VWS V14.01,2013-05-04 14:30:00,
2013-05-04 10:34:00,67.8,66.9,29.72,NNW,347,6.0,6.0,97,0.01,,---,0.08,VWS V14.01,2013-05-04 14:34:00,
2013-05-04 10:39:00,67.8,66.9,29.72,North,0,1.0,7.0,97,0.02,,---,0.09,VWS V14.01,2013-05-04 14:39:00,
2013-05-04 10:44:00,67.6,67.0,29.72,NW,306,2.0,7.0,98,0.04,,---,0.11,VWS V14.01,2013-05-04 14:44:00,
2013-05-04 10:49:00,67.4,66.8,29.72,WNW,287,0.0,7.0,98,0.04,,---,0.11,VWS V14.01,2013-05-04 14:49:00,
2013-05-04 10:54:00,67.6,67.0,29.72,WNW,287,0.0,7.0,98,0.05,,---,0.12,VWS V14.01,2013-05-04 14:54:00,
2013-05-04 10:59:00,67.6,67.3,29.72,North,0,0.0,7.0,99,0.05,,---,0.12,VWS V14.01,2013-05-04 14:59:00,
2013-05-04 11:00:00,67.6,67.3,29.72,NW,311,0.0,7.0,99,0.05,,---,0.12,VWS V14.01,2013-05-04 15:00:00,
2013-05-04 11:04:00,67.6,67.3,29.72,North,350,0.0,3.0,99,0.06,,---,0.13,VWS V14.01,2013-05-04 15:04:00,
2013-05-04 11:09:00,67.4,67.1,29.72,WNW,288,4.0,5.0,99,0.06,,---,0.13,VWS V14.01,2013-05-04 15:09:00,
2013-05-04 11:14:00,67.3,67.0,29.72,NW,316,0.0,7.0,99,0.06,,---,0.13,VWS V14.01,2013-05-04 15:14:00,
2013-05-04 11:19:00,67.3,67.0,29.73,WNW,285,0.0,7.0,99,0.07,,---,0.14,VWS V14.01,2013-05-04 15:19:00,
2013-05-04 11:24:00,67.3,67.0,29.73,NW,319,0.0,7.0,99,0.07,,---,0.14,VWS V14.01,2013-05-04 15:24:00,
2013-05-04 11:29:00,67.1,66.8,29.73,NW,305,0.0,7.0,99,0.08,,---,0.15,VWS V14.01,2013-05-04 15:29:00,
2013-05-04 11:30:00,67.1,66.8,29.73,NW,312,0.0,10.0,99,0.08,,---,0.15,VWS V14.01,2013-05-04 15:30:00,
2013-05-04 11:34:00,67.1,67.1,29.73,NW,306,0.0,8.0,100,0.08,,---,0.15,VWS V14.01,2013-05-04 15:34:00,
2013-05-04 11:39:00,67.1,67.1,29.73,NW,315,0.0,8.0,100,0.08,,---,0.15,VWS V14.01,2013-05-04 15:39:00,
2013-05-04 11:44:00,67.3,67.3,29.73,NW,309,0.0,8.0,100,0.09,,---,0.16,VWS V14.01,2013-05-04 15:44:00,
2013-05-04 11:49:00,67.1,67.1,29.73,NW,308,0.0,8.0,100,0.10,,---,0.17,VWS V14.01,2013-05-04 15:49:00,
2013-05-04 11:54:00,67.3,67.3,29.73,NW,312,0.0,8.0,100,0.10,,---,0.17,VWS V14.01,2013-05-04 15:54:00,
2013-05-04 11:59:00,67.3,67.3,29.73,North,359,0.0,8.0,100,0.11,,---,0.18,VWS V14.01,2013-05-04 15:59:00,
2013-05-04 12:00:00,67.3,67.3,29.72,North,0,7.0,8.0,100,0.11,,---,0.18,VWS V14.01,2013-05-04 16:00:00,
2013-05-04 12:04:00,67.3,67.3,29.72,North,353,0.0,7.0,100,0.06,,---,0.18,VWS V14.01,2013-05-04 16:04:00,
2013-05-04 12:09:00,67.1,67.1,29.72,NNW,335,0.0,8.0,100,0.06,,---,0.18,VWS V14.01,2013-05-04 16:09:00,
2013-05-04 12:14:00,67.1,67.1,29.72,NW,312,0.0,8.0,100,0.06,,---,0.18,VWS V14.01,2013-05-04 16:14:00,
2013-05-04 12:19:00,67.1,67.1,29.72,West,272,0.0,8.0,100,0.06,,---,0.18,VWS V14.01,2013-05-04 16:19:00,
2013-05-04 12:24:00,66.9,66.9,29.72,NNW,347,0.0,8.0,100,0.09,,---,0.21,VWS V14.01,2013-05-04 16:24:00,
2013-05-04 12:29:00,66.9,66.9,29.72,North,0,5.0,8.0,100,0.12,,---,0.24,VWS V14.01,2013-05-04 16:29:00,
2013-05-04 12:30:00,66.9,66.9,29.71,NW,322,0.0,8.0,100,0.12,,---,0.24,VWS V14.01,2013-05-04 16:30:00,
2013-05-04 12:34:00,67.1,67.1,29.71,NW,322,0.0,7.0,100,0.09,,---,0.24,VWS V14.01,2013-05-04 16:34:00,
2013-05-04 12:39:00,67.1,67.1,29.71,NNW,333,2.0,7.0,100,0.10,,---,0.25,VWS V14.01,2013-05-04 16:39:00,
2013-05-04 12:44:00,67.3,67.3,29.71,NNW,333,2.0,8.0,100,0.11,,---,0.26,VWS V14.01,2013-05-04 16:44:00,
2013-05-04 12:49:00,67.4,67.4,29.70,North,354,0.0,8.0,100,0.11,,---,0.26,VWS V14.01,2013-05-04 16:49:00,
2013-05-04 12:54:00,67.3,67.3,29.70,NNW,330,0.0,8.0,100,0.11,,---,0.26,VWS V14.01,2013-05-04 16:54:00,
2013-05-04 12:59:00,67.3,67.3,29.70,NNE,16,0.0,11.0,100,0.11,,---,0.26,VWS V14.01,2013-05-04 16:59:00,
2013-05-04 13:00:00,67.3,67.3,29.70,NW,311,3.0,11.0,100,0.11,,---,0.26,VWS V14.01,2013-05-04 17:00:00,
2013-05-04 13:04:00,67.3,67.3,29.70,NNE,23,0.0,5.0,100,0.08,,---,0.26,VWS V14.01,2013-05-04 17:04:00,
2013-05-04 13:09:00,67.3,67.3,29.70,NW,309,0.0,10.0,100,0.10,,---,0.28,VWS V14.01,2013-05-04 17:09:00,
2013-05-04 13:14:00,67.3,67.3,29.70,NW,311,0.0,10.0,100,0.10,,---,0.28,VWS V14.01,2013-05-04 17:14:00,
2013-05-04 13:19:00,67.3,67.3,29.70,NW,305,0.0,10.0,100,0.10,,---,0.28,VWS V14.01,2013-05-04 17:19:00,
2013-05-04 13:24:00,67.3,67.3,29.70,West,280,5.0,12.0,100,0.11,,---,0.29,VWS V14.01,2013-05-04 17:24:00,
2013-05-04 13:29:00,67.1,67.1,29.69,NNW,346,0.0,12.0,100,0.11,,---,0.29,VWS V14.01,2013-05-04 17:29:00,
2013-05-04 13:30:00,67.1,67.1,29.69,NW,306,0.0,12.0,100,0.11,,---,0.29,VWS V14.01,2013-05-04 17:30:00,
2013-05-04 13:34:00,67.3,67.3,29.69,NW,316,6.0,6.0,100,0.05,,---,0.29,VWS V14.01,2013-05-04 17:34:00,
2013-05-04 13:39:00,67.3,67.3,29.69,NW,313,0.0,6.0,100,0.06,,---,0.30,VWS V14.01,2013-05-04 17:39:00,
2013-05-04 13:44:00,67.4,67.4,29.69,NW,319,2.0,6.0,100,0.07,,---,0.31,VWS V14.01,2013-05-04 17:44:00,
2013-05-04 13:49:00,67.6,67.6,29.69,NNW,344,0.0,8.0,100,0.08,,---,0.32,VWS V14.01,2013-05-04 17:49:00,
2013-05-04 13:54:00,67.6,67.6,29.69,North,350,0.0,8.0,100,0.09,,---,0.33,VWS V14.01,2013-05-04 17:54:00,
2013-05-04 13:59:00,67.4,67.4,29.69,North,0,0.0,11.0,100,0.11,,---,0.35,VWS V14.01,2013-05-04 17:59:00,
2013-05-04 14:00:00,67.4,67.4,29.69,NNW,328,0.0,11.0,100,0.11,,---,0.35,VWS V14.01,2013-05-04 18:00:00,
2013-05-04 14:04:00,67.4,67.4,29.69,NW,323,0.0,4.0,100,0.10,,---,0.36,VWS V14.01,2013-05-04 18:04:00,
2013-05-04 14:09:00,67.1,67.1,29.69,West,277,1.0,8.0,100,0.10,,---,0.36,VWS V14.01,2013-05-04 18:09:00,
2013-05-04 14:14:00,66.9,66.9,29.69,WNW,287,0.0,8.0,100,0.10,,---,0.36,VWS V14.01,2013-05-04 18:14:00,
2013-05-04 14:19:00,66.9,66.9,29.68,West,275,0.0,8.0,100,0.10,,---,0.36,VWS V14.01,2013-05-04 18:19:00,
2013-05-04 14:24:00,67.1,67.1,29.68,WNW,302,0.0,8.0,100,0.10,,---,0.36,VWS V14.01,2013-05-04 18:24:00,
2013-05-04 14:29:00,67.4,67.4,29.68,NW,309,0.0,8.0,100,0.10,,---,0.36,VWS V14.01,2013-05-04 18:29:00,
2013-05-04 14:30:00,67.4,67.4,29.69,NW,313,0.0,8.0,100,0.10,,---,0.36,VWS V14.01,2013-05-04 18:30:00,
2013-05-04 14:34:00,67.6,67.6,29.69,NW,326,0.0,6.0,100,0.07,,---,0.36,VWS V14.01,2013-05-04 18:34:00,
2013-05-04 14:39:00,67.6,67.6,29.69,North,349,3.0,7.0,100,0.07,,---,0.36,VWS V14.01,2013-05-04 18:39:00,
2013-05-04 14:44:00,67.8,67.8,29.69,North,0,0.0,7.0,100,0.07,,---,0.36,VWS V14.01,2013-05-04 18:44:00,
2013-05-04 14:49:00,67.6,67.6,29.68,WNW,299,0.0,7.0,100,0.07,,---,0.36,VWS V14.01,2013-05-04 18:49:00,
2013-05-04 14:54:00,67.6,67.6,29.68,North,354,0.0,7.0,100,0.07,,---,0.36,VWS V14.01,2013-05-04 18:54:00,
2013-05-04 14:59:00,67.6,67.6,29.68,West,281,0.0,7.0,100,0.07,,---,0.36,VWS V14.01,2013-05-04 18:59:00,
2013-05-04 15:00:00,67.8,67.8,29.68,NNW,337,0.0,7.0,100,0.07,,---,0.36,VWS V14.01,2013-05-04 19:00:00,
2013-05-04 15:04:00,67.9,67.9,29.68,NW,318,0.0,5.0,100,0.01,,---,0.36,VWS V14.01,2013-05-04 19:04:00,
2013-05-04 15:09:00,68.1,68.1,29.68,North,352,2.0,13.0,100,0.01,,---,0.36,VWS V14.01,2013-05-04 19:09:00,
2013-05-04 15:14:00,68.1,68.1,29.67,South,185,0.0,13.0,100,0.01,,---,0.36,VWS V14.01,2013-05-04 19:14:00,
2013-05-04 15:19:00,68.1,68.1,29.67,NE,35,0.0,13.0,100,0.01,,---,0.36,VWS V14.01,2013-05-04 19:19:00,
2013-05-04 15:24:00,68.3,68.0,29.67,North,359,0.0,13.0,99,0.01,,---,0.36,VWS V14.01,2013-05-04 19:24:00,
2013-05-04 15:29:00,68.4,68.1,29.67,NNW,332,4.0,13.0,99,0.01,,---,0.36,VWS V14.01,2013-05-04 19:29:00,
2013-05-04 15:30:00,68.4,68.1,29.67,NNW,336,7.0,13.0,99,0.01,,---,0.36,VWS V14.01,2013-05-04 19:30:00,
2013-05-04 15:34:00,68.6,68.3,29.67,WNW,285,0.0,7.0,99,0.00,,---,0.36,VWS V14.01,2013-05-04 19:34:00,
2013-05-04 15:39:00,68.8,68.2,29.67,ENE,71,0.0,11.0,98,0.00,,---,0.36,VWS V14.01,2013-05-04 19:39:00,
2013-05-04 15:44:00,68.6,68.0,29.66,NW,311,0.0,11.0,98,0.00,,---,0.36,VWS V14.01,2013-05-04 19:44:00,
2013-05-04 15:49:00,68.8,68.2,29.66,WNW,282,0.0,11.0,98,0.00,,---,0.36,VWS V14.01,2013-05-04 19:49:00,
2013-05-04 15:54:00,68.8,67.9,29.66,WNW,289,0.0,11.0,97,0.00,,---,0.36,VWS V14.01,2013-05-04 19:54:00,
2013-05-04 15:59:00,68.8,67.6,29.66,WSW,248,0.0,11.0,96,0.00,,---,0.36,VWS V14.01,2013-05-04 19:59:00,
2013-05-04 16:00:00,68.8,67.6,29.66,South,171,0.0,11.0,96,0.00,,---,0.36,VWS V14.01,2013-05-04 20:00:00,
2013-05-04 16:04:00,68.9,67.7,29.66,NNW,346,0.0,5.0,96,0.00,,---,0.36,VWS V14.01,2013-05-04 20:04:00,
2013-05-04 16:09:00,68.9,67.7,29.66,NW,305,0.0,5.0,96,0.00,,---,0.36,VWS V14.01,2013-05-04 20:09:00,
2013-05-04 16:14:00,68.9,67.4,29.65,ENE,65,0.0,5.0,95,0.00,,---,0.36,VWS V14.01,2013-05-04 20:14:00,
2013-05-04 16:19:00,68.9,67.4,29.65,North,350,2.0,5.0,95,0.00,,---,0.36,VWS V14.01,2013-05-04 20:19:00,
2013-05-04 16:24:00,68.9,67.4,29.65,WNW,292,6.0,6.0,95,0.00,,---,0.36,VWS V14.01,2013-05-04 20:24:00,
2013-05-04 16:30:00,68.9,67.4,29.65,NW,311,0.0,12.0,95,0.00,,---,0.36,VWS V14.01,2013-05-04 20:30:00,
2013-05-04 16:35:00,68.9,67.4,29.65,NNW,336,0.0,12.0,95,0.00,,---,0.36,VWS V14.01,2013-05-04 20:35:00,
2013-05-04 16:40:00,68.8,67.3,29.65,NW,312,0.0,12.0,95,0.00,,---,0.36,VWS V14.01,2013-05-04 20:40:00,
2013-05-04 16:45:00,68.8,67.6,29.66,North,352,0.0,12.0,96,0.00,,---,0.36,VWS V14.01,2013-05-04 20:45:00,
2013-05-04 16:50:00,68.8,67.6,29.66,North,0,0.0,12.0,96,0.00,,---,0.36,VWS V14.01,2013-05-04 20:50:00,
2013-05-04 16:55:00,68.6,67.4,29.66,North,0,2.0,12.0,96,0.00,,---,0.36,VWS V14.01,2013-05-04 20:55:00,
2013-05-04 17:00:00,68.6,67.4,29.65,West,277,0.0,12.0,96,0.00,,---,0.36,VWS V14.01,2013-05-04 21:00:00,
2013-05-04 17:05:00,68.6,67.7,29.65,North,8,0.0,3.0,97,0.00,,---,0.36,VWS V14.01,2013-05-04 21:05:00,
2013-05-04 17:10:00,68.6,67.7,29.65,North,352,0.0,6.0,97,0.00,,---,0.36,VWS V14.01,2013-05-04 21:10:00,
2013-05-04 17:15:00,68.6,67.7,29.65,SW,222,0.0,7.0,97,0.00,,---,0.36,VWS V14.01,2013-05-04 21:15:00,
2013-05-04 17:20:00,68.6,67.7,29.65,WNW,295,2.0,7.0,97,0.00,,---,0.36,VWS V14.01,2013-05-04 21:20:00,
2013-05-04 17:25:00,68.8,67.6,29.65,NW,311,0.0,7.0,96,0.00,,---,0.36,VWS V14.01,2013-05-04 21:25:00,
2013-05-04 17:30:00,68.6,67.4,29.64,West,270,0.0,7.0,96,0.00,,---,0.36,VWS V14.01,2013-05-04 21:30:00,
2013-05-04 17:35:00,68.6,67.4,29.64,East,85,1.0,3.0,96,0.00,,---,0.36,VWS V14.01,2013-05-04 21:35:00,
2013-05-04 17:40:00,68.6,67.4,29.64,NNW,342,0.0,3.0,96,0.00,,---,0.36,VWS V14.01,2013-05-04 21:40:00,
2013-05-04 17:45:00,68.6,67.4,29.64,SSE,152,3.0,7.0,96,0.00,,---,0.36,VWS V14.01,2013-05-04 21:45:00,
2013-05-04 17:50:00,68.6,67.4,29.64,NW,318,3.0,7.0,96,0.00,,---,0.36,VWS V14.01,2013-05-04 21:50:00,
2013-05-04 17:55:00,68.6,67.4,29.64,NW,313,0.0,8.0,96,0.00,,---,0.36,VWS V14.01,2013-05-04 21:55:00,
2013-05-04 18:00:00,68.6,67.4,29.64,NNW,343,0.0,0.0,96,0.00,,---,0.36,VWS V14.01,2013-05-04 22:00:00,
2013-05-04 18:05:00,68.4,66.9,29.64,NNE,24,0.0,11.0,95,0.00,,---,0.36,VWS V14.01,2013-05-04 22:05:00,
2013-05-04 18:10:00,68.4,67.2,29.64,NW,305,0.0,11.0,96,0.00,,---,0.36,VWS V14.01,2013-05-04 22:10:00,
2013-05-04 18:15:00,68.3,67.1,29.64,SSE,164,0.0,17.0,96,0.00,,---,0.36,VWS V14.01,2013-05-04 22:15:00,
2013-05-04 18:20:00,68.3,67.1,29.64,NNW,332,0.0,17.0,96,0.00,,---,0.36,VWS V14.01,2013-05-04 22:20:00,
2013-05-04 18:25:00,68.1,67.2,29.64,NW,316,0.0,17.0,97,0.01,,---,0.37,VWS V14.01,2013-05-04 22:25:00,
2013-05-04 18:30:00,67.9,67.0,29.64,NNW,337,3.0,17.0,97,0.02,,---,0.38,VWS V14.01,2013-05-04 22:30:00,
2013-05-04 18:35:00,67.8,66.9,29.64,SSW,203,0.0,7.0,97,0.02,,---,0.38,VWS V14.01,2013-05-04 22:35:00,
2013-05-04 18:40:00,67.6,67.0,29.64,NNE,27,5.0,7.0,98,0.02,,---,0.38,VWS V14.01,2013-05-04 22:40:00,
2013-05-04 18:45:00,67.6,67.0,29.64,SSW,203,3.0,7.0,98,0.03,,---,0.39,VWS V14.01,2013-05-04 22:45:00,
2013-05-04 18:50:00,67.4,66.8,29.64,NNW,336,0.0,11.0,98,0.04,,---,0.40,VWS V14.01,2013-05-04 22:50:00,
2013-05-04 18:55:00,67.4,66.8,29.64,North,6,0.0,11.0,98,0.04,,---,0.40,VWS V14.01,2013-05-04 22:55:00,
2013-05-04 19:00:00,67.4,67.1,29.64,WNW,287,0.0,11.0,99,0.05,,---,0.41,VWS V14.01,2013-05-04 23:00:00,
2013-05-04 19:05:00,67.4,67.1,29.64,NW,305,0.0,0.0,99,0.05,,---,0.41,VWS V14.01,2013-05-04 23:05:00,
2013-05-04 19:10:00,67.4,67.1,29.64,North,4,0.0,3.0,99,0.05,,---,0.41,VWS V14.01,2013-05-04 23:10:00,
2013-05-04 19:15:00,67.4,67.1,29.64,NNW,340,5.0,5.0,99,0.07,,---,0.43,VWS V14.01,2013-05-04 23:15:00,
2013-05-04 19:20:00,67.4,67.1,29.64,North,0,5.0,5.0,99,0.07,,---,0.43,VWS V14.01,2013-05-04 23:20:00,
2013-05-04 19:25:00,67.6,67.3,29.64,NNW,330,0.0,5.0,99,0.07,,---,0.43,VWS V14.01,2013-05-04 23:25:00,
2013-05-04 19:30:00,67.6,67.3,29.63,WNW,294,0.0,6.0,99,0.08,,---,0.44,VWS V14.01,2013-05-04 23:30:00,
2013-05-04 19:35:00,67.6,67.3,29.63,NNW,340,0.0,0.0,99,0.06,,---,0.44,VWS V14.01,2013-05-04 23:35:00,
2013-05-04 19:40:00,67.6,67.3,29.63,ESE,110,0.0,2.0,99,0.06,,---,0.44,VWS V14.01,2013-05-04 23:40:00,
2013-05-04 19:45:00,67.6,67.3,29.64,NNE,18,0.0,2.0,99,0.06,,---,0.44,VWS V14.01,2013-05-04 23:45:00,
2013-05-04 19:50:00,67.6,67.3,29.64,NW,306,0.0,2.0,99,0.06,,---,0.44,VWS V14.01,2013-05-04 23:50:00,
2013-05-04 19:55:00,67.6,67.3,29.64,NW,325,0.0,2.0,99,0.07,,---,0.45,VWS V14.01,2013-05-04 23:55:00,
2013-05-04 20:00:00,67.6,67.3,29.64,North,0,0.0,0.0,99,0.04,,---,0.45,VWS V14.01,2013-05-05 00:00:00,
2013-05-04 20:05:00,67.6,67.6,29.64,West,261,0.0,2.0,100,0.04,,---,0.45,VWS V14.01,2013-05-05 00:05:00,
2013-05-04 20:10:00,67.6,67.6,29.64,SE,143,1.0,2.0,100,0.04,,---,0.45,VWS V14.01,2013-05-05 00:10:00,
2013-05-04 20:15:00,67.8,67.8,29.65,NW,305,0.0,2.0,100,0.04,,---,0.45,VWS V14.01,2013-05-05 00:15:00,
2013-05-04 20:20:00,67.6,67.6,29.65,South,189,0.0,2.0,100,0.04,,---,0.45,VWS V14.01,2013-05-05 00:20:00,
2013-05-04 20:25:00,67.8,67.8,29.65,NNW,347,1.0,5.0,100,0.09,,---,0.50,VWS V14.01,2013-05-05 00:25:00,
2013-05-04 20:30:00,67.8,67.8,29.66,NNW,332,0.0,0.0,100,0.06,,---,0.50,VWS V14.01,2013-05-05 00:30:00,
2013-05-04 20:35:00,67.8,67.8,29.66,SSE,151,0.0,0.0,100,0.07,,---,0.51,VWS V14.01,2013-05-05 00:35:00,
2013-05-04 20:40:00,67.9,67.9,29.66,NW,311,0.0,0.0,100,0.07,,---,0.51,VWS V14.01,2013-05-05 00:40:00,
2013-05-04 20:45:00,67.9,67.9,29.66,NW,315,0.0,0.0,100,0.07,,---,0.51,VWS V14.01,2013-05-05 00:45:00,
2013-05-04 20:50:00,67.9,67.9,29.66,NW,318,2.0,2.0,100,0.07,,---,0.51,VWS V14.01,2013-05-05 00:50:00,
2013-05-04 20:55:00,68.1,68.1,29.66,West,278,0.0,2.0,100,0.07,,---,0.51,VWS V14.01,2013-05-05 00:55:00,
2013-05-04 21:00:00,68.1,68.1,29.65,WNW,302,0.0,10.0,100,0.07,,---,0.51,VWS V14.01,2013-05-05 01:00:00,
2013-05-04 21:05:00,68.1,68.1,29.65,NNW,344,6.0,6.0,100,0.06,,---,0.51,VWS V14.01,2013-05-05 01:05:00,
2013-05-04 21:10:00,68.1,68.1,29.65,SSE,158,0.0,6.0,100,0.06,,---,0.51,VWS V14.01,2013-05-05 01:10:00,
2013-05-04 21:15:00,68.1,68.1,29.66,NNW,347,0.0,6.0,100,0.06,,---,0.51,VWS V14.01,2013-05-05 01:15:00,
2013-05-04 21:20:00,68.3,68.3,29.66,WNW,291,0.0,6.0,100,0.06,,---,0.51,VWS V14.01,2013-05-05 01:20:00,
2013-05-04 21:25:00,68.3,68.3,29.66,East,82,0.0,6.0,100,0.06,,---,0.51,VWS V14.01,2013-05-05 01:25:00,
2013-05-04 21:30:00,68.3,68.3,29.67,NE,56,0.0,6.0,100,0.06,,---,0.51,VWS V14.01,2013-05-05 01:30:00,
2013-05-04 21:35:00,68.3,68.3,29.67,SSW,195,0.0,0.0,100,0.03,,---,0.53,VWS V14.01,2013-05-05 01:35:00,
2013-05-04 21:40:00,68.4,68.4,29.67,ENE,69,0.0,1.0,100,0.03,,---,0.53,VWS V14.01,2013-05-05 01:40:00,
2013-05-04 21:45:00,68.4,68.4,29.68,West,278,0.0,6.0,100,0.03,,---,0.53,VWS V14.01,2013-05-05 01:45:00,
2013-05-04 21:50:00,68.4,68.4,29.68,SE,127,0.0,6.0,100,0.03,,---,0.53,VWS V14.01,2013-05-05 01:50:00,
2013-05-04 21:55:00,68.4,68.4,29.68,NE,41,2.0,6.0,100,0.03,,---,0.53,VWS V14.01,2013-05-05 01:55:00,
2013-05-04 22:00:00,68.6,68.6,29.68,WSW,240,0.0,6.0,100,0.03,,---,0.53,VWS V14.01,2013-05-05 02:00:00,
2013-05-04 22:05:00,68.6,68.6,29.68,ENE,69,0.0,3.0,100,0.02,,---,0.53,VWS V14.01,2013-05-05 02:05:00,
2013-05-04 22:10:00,68.6,68.6,29.68,NNW,336,0.0,3.0,100,0.03,,---,0.54,VWS V14.01,2013-05-05 02:10:00,
2013-05-04 22:15:00,68.6,68.6,29.68,ESE,121,0.0,3.0,100,0.03,,---,0.54,VWS V14.01,2013-05-05 02:15:00,
2013-05-04 22:20:00,68.6,68.6,29.68,NE,51,0.0,7.0,100,0.03,,---,0.54,VWS V14.01,2013-05-05 02:20:00,
2013-05-04 22:25:00,68.6,68.6,29.68,South,169,0.0,7.0,100,0.03,,---,0.54,VWS V14.01,2013-05-05 02:25:00,
2013-05-04 22:30:00,68.8,68.8,29.68,SW,236,0.0,7.0,100,0.03,,---,0.54,VWS V14.01,2013-05-05 02:30:00,
2013-05-04 22:35:00,68.8,68.8,29.68,NNW,340,0.0,5.0,100,0.03,,---,0.54,VWS V14.01,2013-05-05 02:35:00,
2013-05-04 22:40:00,68.8,68.8,29.68,ESE,116,0.0,6.0,100,0.03,,---,0.54,VWS V14.01,2013-05-05 02:40:00,
2013-05-04 22:45:00,68.8,68.8,29.68,ENE,78,0.0,6.0,100,0.03,,---,0.54,VWS V14.01,2013-05-05 02:45:00,
2013-05-04 22:50:00,68.8,68.8,29.68,ESE,114,0.0,10.0,100,0.03,,---,0.54,VWS V14.01,2013-05-05 02:50:00,
2013-05-04 22:55:00,68.9,68.9,29.68,ESE,102,0.0,10.0,100,0.03,,---,0.54,VWS V14.01,2013-05-05 02:55:00,
2013-05-04 23:00:00,68.9,68.9,29.68,ESE,116,0.0,10.0,100,0.03,,---,0.54,VWS V14.01,2013-05-05 03:00:00,
2013-05-04 23:05:00,68.8,68.8,29.68,SSW,203,0.0,3.0,100,0.03,,---,0.56,VWS V14.01,2013-05-05 03:05:00,
2013-05-04 23:10:00,68.9,68.9,29.68,SE,126,0.0,3.0,100,0.04,,---,0.57,VWS V14.01,2013-05-05 03:10:00,
2013-05-04 23:15:00,68.9,68.9,29.68,SE,145,1.0,3.0,100,0.04,,---,0.57,VWS V14.01,2013-05-05 03:15:00,
2013-05-04 23:20:00,68.9,68.9,29.68,East,97,0.0,3.0,100,0.04,,---,0.57,VWS V14.01,2013-05-05 03:20:00,
2013-05-04 23:25:00,68.9,68.9,29.68,SE,126,0.0,3.0,100,0.04,,---,0.57,VWS V14.01,2013-05-05 03:25:00,
2013-05-04 23:30:00,68.9,68.9,29.68,SE,141,0.0,3.0,100,0.04,,---,0.57,VWS V14.01,2013-05-05 03:30:00,
2013-05-04 23:35:00,69.1,69.1,29.68,ESE,110,0.0,0.0,100,0.03,,---,0.57,VWS V14.01,2013-05-05 03:35:00,
2013-05-04 23:40:00,69.1,69.1,29.68,ESE,106,0.0,0.0,100,0.03,,---,0.57,VWS V14.01,2013-05-05 03:40:00,
2013-05-04 23:45:00,69.1,69.1,29.68,ESE,123,0.0,8.0,100,0.03,,---,0.57,VWS V14.01,2013-05-05 03:45:00,
2013-05-04 23:50:00,69.1,69.1,29.68,SSE,152,0.0,8.0,100,0.03,,---,0.57,VWS V14.01,2013-05-05 03:50:00,
2013-05-04 23:55:00,69.1,69.1,29.68,SE,144,0.0,8.0,100,0.03,,---,0.57,VWS V14.01,2013-05-05 03:55:00,